Location: Shenandoah County Park
(38.9356°N, 78.4524°W)
Time: 01:10:40
(UTC-05:00)

Envisat - Pass Details

Date: 29 November 2021
Orbit: 764 x 766 km, 98.2° (Epoch: 23 January)

Event Time Altitude Azimuth Distance (km) Brightness Sun altitude
Rises 03:42:10 0° 39° (NE) 3,238 6.7 -40.2°
Reaches altitude 10° 03:47:29 10° 86° (E) 2,302 6.2 -39.2°
Maximum altitude 03:47:44 10° 89° (E) 2,299 6.2 -39.1°
Drops below altitude 10° 03:47:59 10° 92° (E) 2,301 6.2 -39.1°
Sets 03:53:14 0° 138° (SE) 3,218 6.7 -38.1°
